Time,TemperatureF,DewpointF,PressureIn,WindDirection,WindDirectionDegrees,WindSpeedMPH,WindSpeedGustMPH,Humidity,HourlyPrecipIn,Conditions,Clouds,dailyrainin,SoftwareType,DateUTC
2017-11-24 00:00:00,25.4,23.0,30.05,West,270,0.0,-999.0,91,0.00,,,0.00,,2017-11-24 05:00:00,
2017-11-24 00:05:00,24.6,24.0,30.05,West,270,0.0,-999.0,98,0.00,,,0.00,,2017-11-24 05:05:00,
2017-11-24 00:10:00,23.7,-17.0,30.05,West,270,0.0,-999.0,15,0.00,,,0.00,,2017-11-24 05:10:00,
2017-11-24 00:15:00,23.4,-16.0,30.05,West,270,0.0,-999.0,15,0.00,,,0.00,,2017-11-24 05:15:00,
2017-11-24 00:20:00,23.3,21.0,30.05,West,270,0.0,-999.0,91,0.00,,,0.00,,2017-11-24 05:20:00,
2017-11-24 00:31:00,23.8,23.0,30.05,West,270,0.0,-999.0,98,0.00,,,0.00,,2017-11-24 05:31:00,
2017-11-24 00:51:00,23.8,23.0,30.04,West,270,0.0,-999.0,98,0.00,,,0.00,,2017-11-24 05:51:00,
2017-11-24 00:56:00,23.8,23.0,30.03,West,270,0.0,-999.0,98,0.00,,,0.00,,2017-11-24 05:56:00,
2017-11-24 01:01:00,23.3,22.0,30.04,West,270,0.0,-999.0,98,0.00,,,0.00,,2017-11-24 06:01:00,
2017-11-24 01:11:00,24.1,23.0,30.04,West,270,0.0,-999.0,98,0.00,,,0.00,,2017-11-24 06:11:00,
2017-11-24 01:16:00,24.6,24.0,30.03,West,270,0.0,-999.0,98,0.00,,,0.00,,2017-11-24 06:16:00,
2017-11-24 01:21:00,24.4,23.0,30.04,West,270,0.0,-999.0,98,0.00,,,0.00,,2017-11-24 06:21:00,
2017-11-24 01:26:00,23.4,23.0,30.04,West,270,0.0,-999.0,98,0.00,,,0.00,,2017-11-24 06:26:00,
2017-11-24 01:31:00,22.7,22.0,30.04,West,270,0.0,-999.0,98,0.00,,,0.00,,2017-11-24 06:31:00,
2017-11-24 01:36:00,24.1,23.0,30.04,West,270,0.0,-999.0,98,0.00,,,0.00,,2017-11-24 06:36:00,
2017-11-24 01:41:00,23.4,23.0,30.05,West,270,0.0,-999.0,98,0.00,,,0.00,,2017-11-24 06:41:00,
2017-11-24 01:47:00,23.4,23.0,30.05,West,270,0.0,-999.0,98,0.00,,,0.00,,2017-11-24 06:47:00,
2017-11-24 01:52:00,23.4,23.0,30.05,West,270,0.0,-999.0,98,0.00,,,0.00,,2017-11-24 06:52:00,
2017-11-24 02:02:00,25.1,24.0,30.04,West,270,0.0,-999.0,98,0.00,,,0.00,,2017-11-24 07:02:00,
2017-11-24 02:07:00,24.2,23.0,30.05,West,270,0.0,-999.0,98,0.00,,,0.00,,2017-11-24 07:07:00,
2017-11-24 02:12:00,24.1,23.0,30.05,West,270,0.0,-999.0,98,0.00,,,0.00,,2017-11-24 07:12:00,
2017-11-24 02:22:00,24.6,24.0,30.05,West,270,0.0,-999.0,98,0.00,,,0.00,,2017-11-24 07:22:00,
2017-11-24 02:27:00,24.2,23.0,30.05,West,270,0.0,-999.0,98,0.00,,,0.00,,2017-11-24 07:27:00,
2017-11-24 02:32:00,23.7,23.0,30.06,West,270,0.0,-999.0,98,0.00,,,0.00,,2017-11-24 07:32:00,
2017-11-24 02:37:00,22.9,22.0,30.05,West,270,0.0,-999.0,98,0.00,,,0.00,,2017-11-24 07:37:00,
2017-11-24 02:42:00,24.4,23.0,30.05,West,270,0.0,-999.0,98,0.00,,,0.00,,2017-11-24 07:42:00,
2017-11-24 02:47:00,23.8,23.0,30.05,West,270,0.0,-999.0,98,0.00,,,0.00,,2017-11-24 07:47:00,
2017-11-24 02:57:00,23.8,23.0,30.05,West,270,0.0,-999.0,98,0.00,,,0.00,,2017-11-24 07:57:00,
2017-11-24 03:02:00,22.9,22.0,30.05,West,270,0.0,-999.0,98,0.00,,,0.00,,2017-11-24 08:02:00,
2017-11-24 03:07:00,23.2,22.0,30.05,West,270,0.0,-999.0,98,0.00,,,0.00,,2017-11-24 08:07:00,
2017-11-24 03:12:00,22.5,22.0,30.04,West,270,0.0,-999.0,98,0.00,,,0.00,,2017-11-24 08:12:00,
2017-11-24 03:17:00,22.7,22.0,30.04,West,270,0.0,-999.0,98,0.00,,,0.00,,2017-11-24 08:17:00,
2017-11-24 03:27:00,22.5,22.0,30.04,West,270,0.0,-999.0,98,0.00,,,0.00,,2017-11-24 08:27:00,
2017-11-24 03:32:00,22.3,21.0,30.04,West,270,0.0,-999.0,98,0.00,,,0.00,,2017-11-24 08:32:00,
2017-11-24 03:37:00,22.5,22.0,30.04,West,270,0.0,-999.0,98,0.00,,,0.00,,2017-11-24 08:37:00,
2017-11-24 03:47:00,24.1,23.0,30.04,West,270,0.0,-999.0,98,0.00,,,0.00,,2017-11-24 08:47:00,
2017-11-24 03:52:00,24.2,23.0,30.04,West,270,0.0,-999.0,98,0.00,,,0.00,,2017-11-24 08:52:00,
2017-11-24 03:57:00,23.7,23.0,30.04,West,270,0.0,-999.0,98,0.00,,,0.00,,2017-11-24 08:57:00,
2017-11-24 04:02:00,24.2,23.0,30.04,West,270,0.0,-999.0,98,0.00,,,0.00,,2017-11-24 09:02:00,
2017-11-24 04:07:00,24.6,24.0,30.04,West,270,0.0,-999.0,98,0.00,,,0.00,,2017-11-24 09:07:00,
2017-11-24 04:12:00,23.8,23.0,30.04,West,270,0.0,-999.0,98,0.00,,,0.00,,2017-11-24 09:12:00,
2017-11-24 04:17:00,23.2,22.0,30.04,West,270,0.0,-999.0,98,0.00,,,0.00,,2017-11-24 09:17:00,
2017-11-24 04:22:00,22.5,22.0,30.04,West,270,0.0,-999.0,98,0.00,,,0.00,,2017-11-24 09:22:00,
2017-11-24 04:28:00,22.9,22.0,30.04,West,270,0.0,-999.0,98,0.00,,,0.00,,2017-11-24 09:28:00,
2017-11-24 04:33:00,23.7,23.0,30.04,West,270,0.0,-999.0,98,0.00,,,0.00,,2017-11-24 09:33:00,
2017-11-24 04:43:00,23.4,23.0,30.04,West,270,0.0,-999.0,98,0.00,,,0.00,,2017-11-24 09:43:00,
2017-11-24 04:48:00,23.3,22.0,30.05,West,270,0.0,-999.0,98,0.00,,,0.00,,2017-11-24 09:48:00,
2017-11-24 04:53:00,23.4,23.0,30.05,West,270,0.0,-999.0,98,0.00,,,0.00,,2017-11-24 09:53:00,
2017-11-24 04:58:00,24.1,23.0,30.05,West,270,0.0,-999.0,98,0.00,,,0.00,,2017-11-24 09:58:00,
2017-11-24 05:03:00,24.4,23.0,30.05,West,270,0.0,-999.0,98,0.00,,,0.00,,2017-11-24 10:03:00,
2017-11-24 05:08:00,23.8,23.0,30.05,West,270,0.0,-999.0,98,0.00,,,0.00,,2017-11-24 10:08:00,
2017-11-24 05:13:00,24.4,23.0,30.05,West,270,0.0,-999.0,98,0.00,,,0.00,,2017-11-24 10:13:00,
2017-11-24 05:23:00,23.4,23.0,30.05,West,270,0.0,-999.0,98,0.00,,,0.00,,2017-11-24 10:23:00,
2017-11-24 05:28:00,22.7,22.0,30.05,West,270,0.0,-999.0,98,0.00,,,0.00,,2017-11-24 10:28:00,
2017-11-24 05:33:00,22.5,22.0,30.05,West,270,0.0,-999.0,98,0.00,,,0.00,,2017-11-24 10:33:00,